Location: Unspecified
(0.0000°N, 0.0000°E)
Time: 14:03:33
(UTC+00:00)

Vanguard 1 Rocket - Visible Passes

Search period start: 08 December 2016 00:00
Search period end: 18 December 2016 00:00
Orbit: 650 x 4226 km, 34.3° (Epoch: 04 December)

Date Brightness Start Highest point End Pass type
(mag) Time Alt. Az. Time Alt. Az. Time Alt. Az.
08 Dec 10.8 18:57:40 10° NW 19:08:07 15° N 19:16:14 10° NNE visible
09 Dec 10.7 20:20:14 10° NNW 20:27:25 15° N 20:27:25 15° N visible
10 Dec 10.7 19:02:03 10° NW 19:13:02 16° N 19:20:24 11° NNE visible
10 Dec 11.0 21:37:01 10° NNW 21:37:43 11° NNW 21:37:43 11° NNW visible
11 Dec 10.6 20:22:18 10° NNW 20:30:44 19° N 20:30:44 19° N visible
12 Dec 10.6 19:05:28 10° NNW 19:17:53 18° N 19:23:48 14° NNE visible
12 Dec 10.9 21:38:59 10° NW 21:41:07 14° NNW 21:41:07 14° NNW visible
13 Dec 10.4 20:24:18 10° NNW 20:34:15 23° N 20:34:15 23° N visible
14 Dec 10.4 19:08:15 10° NNW 19:22:33 21° N 19:27:27 18° NNE visible
14 Dec 10.8 21:41:08 10° NW 21:44:46 18° NW 21:44:46 18° NW visible
15 Dec 10.2 20:26:21 10° NW 20:38:02 30° N 20:38:02 30° N visible
16 Dec 10.2 19:10:40 10° NNW 19:26:59 26° NNE 19:31:23 23° NE visible
16 Dec 10.6 21:43:27 10° NW 21:48:43 22° NW 21:48:43 22° NW visible
17 Dec 10.6 17:53:46 10° NW 18:10:54 23° N 18:23:11 10° NE visible
17 Dec 9.9 20:28:26 10° NW 20:42:10 39° N 20:42:10 39° N visible
